Weather History for KD55 - June, 2014

Change the Weather History Date:

Monday, June 23, 2014

  Actual Average (KDVL) Record (KDVL)
Temperature  
Mean Temperature 62 °F -  
Max Temperature 75 °F 76 °F - (-1)
Min Temperature 50 °F 54 °F - (-1)
Degree Days  
Heating Degree Days 2    
Growing Degree Days 12 (Base 50)    
Moisture  
Dew Point 56 °F    
Average Humidity 81    
Maximum Humidity 100    
Minimum Humidity 50    
Precipitation  
Precipitation 0.01 in - - ()
Sea Level Pressure  
Sea Level Pressure 29.88 in    
Wind  
Wind Speed 8 mph (NW)    
Max Wind Speed 18 mph    
Max Gust Speed 24 mph    
Visibility 9 miles    
Events Rain    
Averages and records for this station are not official NWS values.
T = Trace of Precipitation, MM = Missing Value Source: NWS Daily Summary

Daily Weather History Graph

Daily Weather History Graph

Search for Another Location

Airport or City:

Trip Planner

Search our weather history database for the weather conditions in past years. The results will help you decide how hot, cold, wet, or windy it might be!

Date:

Astronomy

Jun. 23, 2014 Rise Set
Actual Time 5:30 AM CDT 9:40 PM CDT
Civil Twilight 4:48 AM CDT 10:23 PM CDT
Nautical Twilight 3:48 AM CDT 11:23 PM CDT
Astronomical Twilight 2:08 AM CDT 1:03 AM CDT
Moon 3:12 AM CDT (6/23) 6:10 PM CDT (6/23)
Length of Visible Light 17h 34m
Length of Day
16h 09m
Waning Crescent, 13% of the Moon is Illuminated
Jun 23
Waning Crescent
Jun 27
New
Jul 5
First Quarter
Jul 12
Full
Jul 18
Last Quarter

Hourly Weather History & Observations

Time (CDT) Temp. Dew Point Humidity Pressure Visibility Wind Dir Wind Speed Gust Speed Precip Events Conditions
12:35 AM 57.2 °F 53.6 °F 88% 29.84 in 10.0 mi West 5.8 mph - N/A   Clear
12:55 AM 57.2 °F 55.4 °F 94% 29.84 in 10.0 mi West 6.9 mph - N/A   Clear
1:15 AM 57.2 °F 53.6 °F 88% 29.84 in 10.0 mi West 5.8 mph - N/A   Clear
1:35 AM 53.6 °F 53.6 °F 100% 29.84 in 10.0 mi WSW 5.8 mph - N/A   Partly Cloudy
1:55 AM 53.6 °F 53.6 °F 100% 29.84 in 10.0 mi WSW 6.9 mph - N/A   Mostly Cloudy
2:15 AM 53.6 °F 53.6 °F 100% 29.84 in 10.0 mi WSW 4.6 mph - N/A   Mostly Cloudy
2:35 AM 53.6 °F 51.8 °F 94% 29.83 in 10.0 mi WSW 5.8 mph - N/A   Partly Cloudy
2:55 AM 51.8 °F 51.8 °F 100% 29.83 in 10.0 mi WSW 5.8 mph - N/A   Clear
3:15 AM 51.8 °F 50.0 °F 94% 29.83 in 10.0 mi WSW 5.8 mph - N/A   Clear
3:35 AM 50.0 °F 50.0 °F 100% 29.83 in 10.0 mi SW 5.8 mph - N/A   Clear
3:55 AM 50.0 °F 50.0 °F 100% 29.84 in 10.0 mi WSW 5.8 mph - N/A   Clear
4:15 AM 51.8 °F 50.0 °F 94% 29.84 in 10.0 mi WSW 6.9 mph - N/A   Clear
4:35 AM 51.8 °F 50.0 °F 94% 29.84 in 10.0 mi WSW 6.9 mph - N/A   Clear
4:55 AM 50.0 °F 50.0 °F 100% 29.85 in 10.0 mi WSW 6.9 mph - N/A   Clear
5:15 AM 50.0 °F 50.0 °F 100% 29.85 in 10.0 mi WSW 3.5 mph - N/A   Clear
5:35 AM 50.0 °F 48.2 °F 94% 29.86 in 8.0 mi WSW 4.6 mph - N/A   Clear
5:55 AM 50.0 °F 50.0 °F 100% 29.85 in 6.0 mi SW 4.6 mph - N/A   Clear
6:15 AM 51.8 °F 50.0 °F 94% 29.85 in 5.0 mi West 5.8 mph - N/A   Clear
6:35 AM 53.6 °F 53.6 °F 100% 29.85 in 10.0 mi WNW 5.8 mph - N/A   Clear
6:55 AM 55.4 °F 55.4 °F 100% 29.84 in 10.0 mi WNW 8.1 mph - N/A   Clear
7:15 AM 57.2 °F 55.4 °F 94% 29.84 in 10.0 mi NW 10.4 mph - N/A   Clear
7:35 AM 59.0 °F 55.4 °F 88% 29.85 in 10.0 mi NW 6.9 mph - N/A   Clear
7:55 AM 60.8 °F 57.2 °F 88% 29.86 in 10.0 mi NW 6.9 mph - N/A   Clear
8:15 AM 62.6 °F 57.2 °F 82% 29.86 in 10.0 mi WNW 5.8 mph - N/A   Clear
8:35 AM 62.6 °F 57.2 °F 82% 29.86 in 10.0 mi WNW 5.8 mph - N/A   Clear
8:55 AM 64.4 °F 57.2 °F 77% 29.86 in 10.0 mi WNW 5.8 mph - N/A   Clear
9:15 AM 66.2 °F 59.0 °F 78% 29.86 in 10.0 mi WNW 8.1 mph - N/A   Clear
9:35 AM 66.2 °F 57.2 °F 73% 29.87 in 10.0 mi WNW 10.4 mph - N/A   Clear
9:55 AM 68.0 °F 57.2 °F 68% 29.87 in 10.0 mi NW 12.7 mph - N/A   Partly Cloudy
10:15 AM 68.0 °F 57.2 °F 68% 29.87 in 10.0 mi NW 10.4 mph - N/A   Scattered Clouds
10:35 AM 68.0 °F 57.2 °F 68% 29.87 in 10.0 mi WNW 10.4 mph 16.1 mph N/A   Scattered Clouds
10:55 AM 69.8 °F 57.2 °F 64% 29.88 in 10.0 mi WNW 10.4 mph - N/A   Scattered Clouds
11:15 AM 69.8 °F 57.2 °F 64% 29.88 in 10.0 mi NW 12.7 mph - N/A   Mostly Cloudy
11:35 AM 69.8 °F 57.2 °F 64% 29.87 in 10.0 mi NW 10.4 mph - N/A   Mostly Cloudy
11:55 AM 73.4 °F 57.2 °F 57% 29.87 in 10.0 mi WNW 15.0 mph - N/A   Scattered Clouds
12:15 PM 71.6 °F 55.4 °F 57% 29.87 in 10.0 mi West 12.7 mph 17.3 mph N/A   Scattered Clouds
12:35 PM 71.6 °F 57.2 °F 60% 29.88 in 10.0 mi NNW 12.7 mph - N/A   Scattered Clouds
12:55 PM 73.4 °F 57.2 °F 57% 29.87 in 10.0 mi NNW 8.1 mph - N/A   Scattered Clouds
1:15 PM 69.8 °F 57.2 °F 64% 29.88 in 10.0 mi NW 5.8 mph - N/A   Mostly Cloudy
1:35 PM 73.4 °F 57.2 °F 57% 29.88 in 10.0 mi NW 8.1 mph - N/A   Scattered Clouds
1:55 PM 73.4 °F 57.2 °F 57% 29.87 in 10.0 mi West 10.4 mph - N/A   Scattered Clouds
2:15 PM 71.6 °F 57.2 °F 60% 29.87 in 10.0 mi NNW 8.1 mph - N/A   Mostly Cloudy
2:35 PM 71.6 °F 57.2 °F 60% 29.87 in 10.0 mi NNW 6.9 mph - N/A   Mostly Cloudy
2:55 PM 73.4 °F 57.2 °F 57% 29.87 in 10.0 mi NNW 11.5 mph - N/A   Mostly Cloudy
3:15 PM 69.8 °F 59.0 °F 68% 29.88 in 10.0 mi North 11.5 mph - N/A   Mostly Cloudy
3:35 PM 71.6 °F 59.0 °F 64% 29.87 in 10.0 mi NNW 12.7 mph - N/A   Scattered Clouds
3:55 PM 71.6 °F 59.0 °F 64% 29.88 in 10.0 mi North 10.4 mph - N/A   Scattered Clouds
4:15 PM 71.6 °F 59.0 °F 64% 29.88 in 10.0 mi NW 15.0 mph - N/A   Mostly Cloudy
4:35 PM 73.4 °F 55.4 °F 53% 29.88 in 10.0 mi NW 12.7 mph - N/A   Scattered Clouds
4:55 PM 75.2 °F 55.4 °F 50% 29.87 in 10.0 mi NW 9.2 mph - N/A   Scattered Clouds
5:15 PM 71.6 °F 59.0 °F 64% 29.88 in 10.0 mi NNE 11.5 mph - N/A   Mostly Cloudy
5:35 PM 71.6 °F 59.0 °F 64% 29.88 in 10.0 mi NNE 10.4 mph - N/A   Partly Cloudy
5:55 PM 71.6 °F 59.0 °F 64% 29.88 in 10.0 mi NNE 11.5 mph - N/A   Scattered Clouds
6:15 PM 69.8 °F 59.0 °F 68% 29.88 in 10.0 mi NNW 13.8 mph - N/A   Mostly Cloudy
6:35 PM 68.0 °F 59.0 °F 73% 29.89 in 10.0 mi NNE 18.4 mph 23.0 mph N/A   Mostly Cloudy
6:55 PM 62.6 °F 59.0 °F 88% 29.89 in 3.0 mi NNE 11.5 mph - 0.01 in Rain Light Rain
7:15 PM 62.6 °F 59.0 °F 88% 29.90 in 10.0 mi NNE 17.3 mph 21.9 mph N/A   Overcast
7:35 PM 62.6 °F 59.0 °F 88% 29.91 in 10.0 mi NNE 16.1 mph - N/A   Overcast
7:55 PM 62.6 °F 59.0 °F 88% 29.92 in 10.0 mi North 16.1 mph - N/A   Overcast
8:15 PM 62.6 °F 57.2 °F 82% 29.93 in 10.0 mi NNE 16.1 mph 20.7 mph N/A   Mostly Cloudy
8:35 PM 60.8 °F 57.2 °F 88% 29.93 in 10.0 mi North 15.0 mph 19.6 mph N/A   Overcast
8:55 PM 59.0 °F 57.2 °F 94% 29.94 in 2.5 mi North 15.0 mph - N/A   Overcast
9:15 PM 57.2 °F 57.2 °F 100% 29.94 in 1.2 mi North 15.0 mph 20.7 mph N/A   Overcast
9:35 PM 57.2 °F 57.2 °F 100% 29.95 in 0.8 mi North 13.8 mph - N/A   Overcast
9:55 PM 57.2 °F 57.2 °F 100% 29.96 in 2.5 mi North 12.7 mph 24.2 mph N/A   Overcast
10:15 PM 57.2 °F 57.2 °F 100% 29.96 in 2.0 mi North 12.7 mph 18.4 mph N/A   Overcast
10:35 PM 57.2 °F 55.4 °F 94% 29.97 in 1.5 mi North 15.0 mph - N/A   Overcast
10:55 PM 57.2 °F 55.4 °F 94% 29.97 in 1.8 mi North 12.7 mph - N/A   Overcast
11:15 PM 57.2 °F 55.4 °F 94% 29.96 in 3.0 mi North 11.5 mph - N/A   Overcast
11:35 PM 57.2 °F 55.4 °F 94% 29.97 in 4.0 mi North 11.5 mph - N/A   Overcast
11:55 PM 57.2 °F 55.4 °F 94% 29.97 in 10.0 mi North 12.7 mph - N/A   Overcast